Regional Weather Roundup
Issued by NWS

Home | Current Version | Previous Version | Graphics & Text | Print | Product List | Glossary On
Versions: 1 2 3 4 5 6 7 8 9 10 11 12 13 14 15 16 17 18 19 20 21 22 23 24 25 26 27 28 29 30 31 32 33 34 35 36 37 38 39 40 41 42 43 44 45 46 47 48 49 50
000
ASUS43 KFSD 211910
RWRSD

WEATHER ROUNDUP FOR SOUTH DAKOTA
NATIONAL WEATHER SERVICE SIOUX FALLS SD
100 PM CST WED FEB 21 2018

NOTE: "FAIR" INDICATES FEW OR NO CLOUDS BELOW 12,000 FEET WITH NO
SIGNIFICANT WEATHER AND/OR OBSTRUCTIONS TO VISIBILITY.


SDZ001>005-009-010-012>017-212000-
NORTHWEST AND NORTH CENTRAL SOUTH DAKOTA

CITY           SKY/WX    TMP DP  RH WIND       PRES   REMARKS
BUFFALO          N/A      3  -8  60 E6        30.19F WCI  -8
FAITH            N/A      1  -5  75 S8        30.34S WCI -13
MOBRIDGE       FAIR       5  -4  66 SE9       30.42F WCI  -9
$$

SDZ012>016-024>037-041>051-057-063-072>074-212000-
SOUTHWEST AND SOUTH CENTRAL SOUTH DAKOTA

CITY           SKY/WX    TMP DP  RH WIND       PRES   REMARKS
RAPID CTY ARPT FAIR       3  -4  72 SE9       30.24F WCI -12
PIERRE         FAIR       2  -5  72 E6        30.49F WCI  -9
CUSTER         FAIR      18   0  45 W15G24    30.09F WCI   4
ELLSWORTH AFB  FAIR      10  -4  53 SE8       30.22F WCI  -2
PHILIP         FAIR       3  -4  72 CALM      30.40F
PINE RIDGE     FAIR      21   9  59 S14       30.28F WCI   8
SPEARFISH        N/A     16   0  48 CALM      30.17F
WINNER         FAIR      17   3  54 S13       30.46F WCI   4
$$

SDZ004>011-016>023-039-040-212000-
NORTHEAST SOUTH DAKOTA

CITY           SKY/WX    TMP DP  RH WIND       PRES   REMARKS
ABERDEEN       FAIR       4  -5  66 S10       30.55S WCI -11
WATERTOWN      FAIR      11   0  61 S7        30.51S WCI   0
SISSETON         N/A     17   0  47 W8        30.55R WCI   7
$$

SDZ017-020-022-023-036>040-048>070-212000-
SOUTHEAST SOUTH DAKOTA

CITY           SKY/WX    TMP DP  RH WIND       PRES   REMARKS
SIOUX FALLS    FAIR      18   1  47 CALM      30.57F
HURON          FAIR      11   1  64 S9        30.58S WCI  -2
CHAMBERLAIN    FAIR      16   5  63 E6        30.51F WCI   7
MITCHELL       FAIR      16   2  54 S10       30.59F WCI   4
YANKTON        FAIR      16   1  51 S9        30.60F WCI   4
$$

ABBREVIATIONS USED IN REMARKS
   TC - TEMPERATURE IN CELSIUS
  WCI - WIND CHILL INDEX
   HX - HEAT INDEX
  VSB - VISIBILITY





USA.gov is the U.S. government's official web portal to all federal, state and local government web resources and services.